[[{"header":{"parameterUnit":"m.s-1","parameterCategory":1,"la1":30.2992,"la2":30.254,"lo1":-89.0895,"lo2":-89.0443,"dy":0.0025,"dx":0.0025,"nx":19,"ny":19,"refTime":"2026-04-19T21:00:00:Z","depth":0,"parameterNumber":2,"parameterNumberName":"U-component_of_WINDS"},"data":[0,0,0,-7.7964,-7.7967,-7.8062,-7.8063,-7.8213,-7.8214,0,0,0,0,0,0,0,0,0,0,0,-7.7955,-7.7957,-7.7964,-7.7967,-7.8062,-7.8063,-7.8213,-7.8214,0,0,0,0,0,0,0,0,0,0,0,-7.7955,-7.7957,-7.7959,-7.7968,-7.8062,-7.8063,-7.8212,-7.813,0,0,0,0,0,0,0,0,0,0,-7.8032,-7.8043,-7.7956,-7.7959,-7.7968,-7.8062,-7.8063,-7.8125,-7.8135,-7.8182,0,-7.8232,0,-7.8226,-7.8227,-7.8227,0,0,0,-7.7952,-7.8035,-7.8044,-7.7959,-7.7969,-7.8062,-7.8015,-7.813,-7.8141,-7.8196,-7.8234,-7.8239,-7.8229,-7.8228,-7.8229,-7.856,-7.8562,0,0,-7.7947,-7.7982,-7.8036,-7.8052,-7.8041,-7.8012,-7.8018,-7.8136,-7.8179,-7.8234,-7.8242,-7.8231,-7.8229,-7.823,-7.8558,-7.856,0,0,0,-7.7942,-7.7979,-7.7984,-7.8047,-7.8062,-7.8015,-7.8022,-7.8174,-7.8173,-7.8243,-7.8233,-7.823,-7.8232,-7.8555,-7.8559,-7.8704,0,0,0,-7.7938,-7.7976,-7.7983,-7.8005,-7.806,-7.812,-7.8058,-7.8165,-7.8177,-7.8232,-7.823,-7.8234,-7.8553,-7.8557,-7.8694,-7.8765,0,0,0,-7.7942,-7.7976,-7.7997,-7.8007,-7.805,-7.8117,-7.8122,-7.8167,-7.8172,-7.8227,-7.8234,-7.8551,-7.8556,-7.8686,-7.8751,-7.8861,0,0,0,-7.7957,-7.8124,-7.8,-7.8183,-7.8049,-7.8208,-7.8121,-7.8237,-7.8302,-7.8231,-7.8553,-7.8558,-7.8683,-7.8742,-7.8852,-7.8957,-7.9006,0,0,-7.8187,-7.8153,-7.8258,-7.815,-7.834,-7.819,-7.84,-7.8425,-7.8398,-7.8507,-7.8514,-7.8697,-7.875,-7.8859,-7.927,-7.9308,0,0,0,-7.8342,-7.8418,-7.846,-7.8526,-7.8551,-7.8578,-7.8568,-7.8577,-7.8669,-7.8462,-7.8767,-7.8798,-7.886,-7.8908,-7.8941,-7.8991,-7.8583,-7.8583,-7.8582,-7.8715,-7.8673,-7.8844,-7.8814,-7.8879,-7.8868,-7.8915,-7.8926,-7.8863,-7.8937,-7.8967,-7.9222,-7.928,-7.9304,-7.9357,-7.9022,-7.9023,-7.9023,-7.9024,-7.9046,-7.9144,-7.9061,-7.9196,-7.915,-7.9262,-7.926,-7.9212,-7.9308,-7.9195,-7.9247,-7.9124,-7.9348,-7.9392,-7.9034,-7.9032,-7.9031,-7.903,-7.9029,-7.9282,-7.9321,-7.9334,-7.9424,-7.9499,-7.9463,-7.9561,-7.9516,-7.9474,-7.9527,-7.9553,-7.955,-7.9539,-7.9544,-7.9545,-7.9545,-7.9546,-7.9547,-7.9547,-7.952,-7.9529,-7.9617,-7.9661,-7.9698,-7.974,-7.9734,-7.9768,-7.9794,-7.9753,-7.9753,-7.9682,-7.938,-7.9303,-7.9561,-7.9558,-7.9557,-7.9555,-7.9554,-7.9863,-7.978,-7.9916,-7.9954,-8.0001,-8.0078,-8.0022,-8.0096,-8.0118,-8.0167,-8.0087,-7.9872,-7.9832,-7.9806,-7.9741,-8.0097,-8.0097,-8.0097,-8.0097,-8.006,-8.0038,-8.0167,-8.023,-8.0286,-8.025,-8.0404,-8.0402,-8.0386,-8.0397,-8.034,-8.0252,-8.0227,-8.0202,-8.0167,-8.0106,-8.0547,-8.0547,-8.0547,-8.0267,-8.0249,-8.0388,-8.0375,-8.041,-8.0441,-8.0583,-8.0657,-8.0621,-8.0565,-8.0403,-8.0384,-8.0242,-8.0199,-8.0133,-8.008,-7.9967,0,0]},{"header":{"parameterUnit":"m.s-1","parameterCategory":1,"la1":30.2992,"la2":30.254,"lo1":-89.0895,"lo2":-89.0443,"dy":0.0025,"dx":0.0025,"nx":19,"ny":19,"refTime":"2026-04-19T21:00:00:Z","depth":0,"parameterNumber":3,"parameterNumberName":"V-component_of_WINDS"},"data":[0,0,0,2.7917,2.7916,2.7861,2.786,2.7811,2.7811,0,0,0,0,0,0,0,0,0,0,0,2.7946,2.7946,2.7917,2.7916,2.7861,2.786,2.7811,2.7811,0,0,0,0,0,0,0,0,0,0,0,2.7946,2.7946,2.7947,2.7916,2.7861,2.786,2.7811,2.7845,0,0,0,0,0,0,0,0,0,0,2.7894,2.7935,2.7946,2.7947,2.7915,2.7861,2.786,2.7846,2.7843,2.7845,0,2.7851,0,2.7831,2.7809,2.7809,0,0,0,2.7905,2.7938,2.7911,2.7947,2.7915,2.7861,2.7883,2.7844,2.784,2.7841,2.785,2.7848,2.783,2.7808,2.7808,2.7861,2.7861,0,0,2.7908,2.7943,2.7914,2.791,2.7921,2.7884,2.7881,2.7841,2.7854,2.785,2.7846,2.7829,2.7808,2.7808,2.786,2.7861,0,0,0,2.7924,2.7946,2.7919,2.7912,2.7901,2.7883,2.7879,2.7855,2.7844,2.7846,2.7828,2.7808,2.7808,2.7859,2.786,2.7932,0,0,0,2.7925,2.7955,2.7921,2.7942,2.7902,2.7878,2.7895,2.7847,2.7841,2.7829,2.7808,2.7807,2.7858,2.786,2.7928,2.7959,0,0,0,2.7945,2.7957,2.7954,2.7944,2.7922,2.7877,2.7863,2.7845,2.7831,2.7808,2.7807,2.7858,2.7859,2.7925,2.7954,2.7985,0,0,0,2.7976,2.8016,2.7956,2.7994,2.7923,2.7923,2.7863,2.7861,2.785,2.7808,2.7858,2.786,2.7924,2.795,2.7981,2.8017,2.8035,0,0,2.8046,2.8026,2.8045,2.799,2.801,2.7928,2.7958,2.7914,2.7879,2.7869,2.7869,2.7929,2.7953,2.7984,2.8125,2.814,0,0,0,2.8079,2.8094,2.8092,2.8085,2.8054,2.803,2.7978,2.7962,2.7952,2.7881,2.7947,2.7961,2.7977,2.7993,2.8005,2.8018,2.7869,2.7869,2.7868,2.8227,2.8183,2.8213,2.8163,2.8157,2.8105,2.8095,2.8065,2.8019,2.8036,2.8032,2.8124,2.8143,2.8153,2.8166,2.8048,2.8048,2.8048,2.8048,2.8326,2.834,2.8283,2.8292,2.8245,2.8251,2.8204,2.8172,2.8171,2.8122,2.8134,2.8085,2.817,2.818,2.8053,2.8052,2.8052,2.8051,2.8051,2.8418,2.8417,2.8399,2.8386,2.8381,2.8328,2.8331,2.8287,2.8246,2.8258,2.825,2.8249,2.8243,2.8258,2.8258,2.8258,2.8259,2.8259,2.8259,2.8521,2.8498,2.8507,2.848,2.8471,2.8453,2.8404,2.8393,2.837,2.8338,2.8338,2.8292,2.8187,2.8162,2.8264,2.8263,2.8262,2.8262,2.8261,2.8637,2.8605,2.8619,2.861,2.8576,2.8575,2.852,2.8503,2.8488,2.8492,2.8444,2.8374,2.8349,2.8338,2.8317,2.8453,2.8453,2.8453,2.8453,2.8715,2.87,2.8705,2.8695,2.8679,2.8632,2.865,2.8613,2.8568,2.8556,2.8531,2.8499,2.849,2.8471,2.8458,2.8437,2.86,2.86,2.86,2.8785,2.8767,2.879,2.8749,2.872,2.8696,2.8712,2.8702,2.8644,2.8605,2.8546,2.854,2.8489,2.8474,2.8433,2.8413,2.8375,0,0]}]]